カタログに戻る

QIANFAN-197

運用中通信PO
NORAD 69415·PAYLOAD·🇨🇳 China

打ち上げ Jun 5, 2026 から Wenchang Space Launch Site

Loading…

次のパス (今後24時間)

TLE

最新Source: Space-Track

元期: Sep 14, 2026, 23:17 UTC

1 69415U 26125Q   26257.97021289  .00000006  00000-0 -10009-4 0  9992
2 69415  88.9879 270.8349 0001955 100.4195 259.7176 13.51023707 14088

AllMySatでQIANFAN-197をリアルタイム追跡

Download on the App Store